Location: Sungai Laei
(2.6000°N, 113.7167°E)
Time: 09:56:38
(UTC+00:00)

Cosmos 1943 Rocket - Pass Details

Date: 22 May 2022
Orbit: 810 x 845 km, 71.0° (Epoch: 06 July)

Event Time Altitude Azimuth Distance (km) Brightness Sun altitude
Rises 19:50:10 0° 354° (N) 3,386 5.6 -34.0°
Reaches altitude 10° 19:52:40 10° 359° (N) 2,451 4.8 -33.4°
Maximum altitude 19:58:07 51° 74° (ENE) 1,043 2.9 -32.2°
Drops below altitude 10° 20:03:33 10° 150° (SSE) 2,442 4.6 -31.0°
Sets 20:06:02 0° 155° (SSE) 3,372 5.3 -30.4°
